Hillsdale, MI

8:29 AM EST on February 19, 2017 (GMT -0500)
Hillsdale Municipal

Weather History for KJYM - October, 2013

Change the Weather History Date:

Monday, October 21, 2013

  Actual Average Record
Temperature  
Mean Temperature 48 °F -  
Max Temperature 55 °F 56 °F 85 °F (1953)
Min Temperature 41 °F 36 °F 15 °F (1952)
Degree Days  
Heating Degree Days 17    
Moisture  
Dew Point 42 °F    
Average Humidity 75    
Maximum Humidity 92    
Minimum Humidity 57    
Precipitation  
Precipitation 0.00 in - - ()
Sea Level Pressure  
Sea Level Pressure 29.85 in    
Wind  
Wind Speed 9 mph (SW)    
Max Wind Speed 14 mph    
Max Gust Speed 28 mph    
Visibility 10 miles    
Events Rain    
Averages and records for this station are not official NWS values.
T = Trace of Precipitation, MM = Missing Value Source: NWS Daily Summary

Daily Weather History Graph

Daily Weather History Graph

Search for Another Location

Airport or City:

Trip Planner

Search our weather history database for the weather conditions in past years. The results will help you decide how hot, cold, wet, or windy it might be!

Date:

Astronomy

Oct. 21, 2013 Rise Set
Actual Time 7:57 AM EDT 6:47 PM EDT
Civil Twilight 7:29 AM EDT 7:15 PM EDT
Nautical Twilight 6:57 AM EDT 7:48 PM EDT
Astronomical Twilight 6:24 AM EDT 8:20 PM EDT
Moon 8:37 PM EDT (10/21) 10:34 AM EDT (10/21)
Length of Visible Light 11h 46m
Length of Day
10h 49m
Waning Gibbous, 93% of the Moon is Illuminated
Oct 21
Waning Gibbous
Oct 26
Last Quarter
Nov 3
New
Nov 10
First Quarter
Nov 17
Full

Hourly Weather History & Observations

Time (EDT) Temp. Windchill Dew Point Humidity Pressure Visibility Wind Dir Wind Speed Gust Speed Precip Events Conditions
12:15 AM 55.0 °F - 39.9 °F 57% 29.85 in 10.0 mi SSW 12.7 mph 19.6 mph N/A   Scattered Clouds
12:34 AM 55.2 °F - 40.3 °F 57% 29.85 in 10.0 mi SSW 12.7 mph 19.6 mph N/A   Mostly Cloudy
12:54 AM 55.2 °F - 40.3 °F 57% 29.84 in 10.0 mi SSW 9.2 mph 19.6 mph N/A   Mostly Cloudy
1:15 AM 54.9 °F - 40.1 °F 58% 29.84 in 10.0 mi SW 10.4 mph 17.3 mph N/A   Scattered Clouds
1:34 AM 54.9 °F - 40.5 °F 58% 29.85 in 10.0 mi SW 10.4 mph 17.3 mph N/A   Scattered Clouds
1:54 AM 54.9 °F - 40.5 °F 58% 29.85 in 10.0 mi SW 9.2 mph 17.3 mph N/A   Clear
2:15 AM 54.1 °F - 40.6 °F 60% 29.85 in 10.0 mi SW 12.7 mph 17.3 mph N/A   Scattered Clouds
2:34 AM 54.0 °F - 40.6 °F 61% 29.85 in 10.0 mi SW 8.1 mph 19.6 mph N/A   Scattered Clouds
2:55 AM 53.8 °F - 41.0 °F 62% 29.85 in 10.0 mi SW 6.9 mph - N/A   Clear
3:14 AM 53.4 °F - 40.8 °F 62% 29.85 in 10.0 mi SSW 9.2 mph - N/A   Clear
3:34 AM 53.4 °F - 41.0 °F 63% 29.85 in 10.0 mi SW 8.1 mph - N/A   Mostly Cloudy
3:55 AM 53.6 °F - 41.4 °F 63% 29.85 in 10.0 mi SW 8.1 mph - N/A   Overcast
4:14 AM 53.8 °F - 41.4 °F 63% 29.85 in 10.0 mi SSW 10.4 mph 16.1 mph N/A   Overcast
4:34 AM 53.4 °F - 41.5 °F 64% 29.84 in 10.0 mi SW 8.1 mph - N/A   Overcast
4:55 AM 53.1 °F - 41.4 °F 64% 29.84 in 10.0 mi SSW 8.1 mph - N/A   Scattered Clouds
5:14 AM 52.5 °F - 41.5 °F 66% 29.84 in 10.0 mi SSW 8.1 mph - N/A   Mostly Cloudy
5:35 AM 51.8 °F - 41.5 °F 68% 29.84 in 10.0 mi SSW 5.8 mph - N/A   Mostly Cloudy
5:54 AM 51.1 °F - 41.4 °F 69% 29.84 in 10.0 mi SSW 6.9 mph - N/A   Scattered Clouds
6:14 AM 50.5 °F - 41.5 °F 71% 29.84 in 10.0 mi SSW 6.9 mph - N/A   Scattered Clouds
6:35 AM 50.5 °F - 41.9 °F 72% 29.84 in 10.0 mi SSW 6.9 mph - N/A   Scattered Clouds
6:54 AM 50.2 °F - 42.1 °F 74% 29.85 in 10.0 mi SSW 8.1 mph - N/A   Scattered Clouds
7:15 AM 49.3 °F - 42.6 °F 78% 29.85 in 10.0 mi SW 8.1 mph - N/A   Clear
7:35 AM 49.5 °F - 43.0 °F 78% 29.85 in 10.0 mi SW 8.1 mph - N/A   Clear
7:54 AM 49.3 °F - 43.2 °F 79% 29.85 in 10.0 mi SW 5.8 mph - N/A   Scattered Clouds
8:15 AM 48.9 °F - 43.0 °F 80% 29.86 in 10.0 mi SW 5.8 mph - N/A   Scattered Clouds
8:35 AM 49.5 °F - 43.3 °F 79% 29.86 in 10.0 mi SW 5.8 mph - N/A   Mostly Cloudy
8:54 AM 49.5 °F - 43.2 °F 79% 29.86 in 10.0 mi SW 8.1 mph - N/A   Overcast
9:15 AM 49.8 °F - 43.3 °F 78% 29.87 in 10.0 mi SW 5.8 mph - N/A   Overcast
9:34 AM 50.2 °F - 43.7 °F 78% 29.87 in 10.0 mi SW 6.9 mph - N/A Rain Light Rain
9:55 AM 49.6 °F - 44.6 °F 83% 29.87 in 10.0 mi SW 6.9 mph - N/A Rain Light Rain
10:15 AM 49.5 °F - 45.5 °F 86% 29.87 in 10.0 mi SW 6.9 mph - N/A   Light Drizzle
10:34 AM 49.5 °F - 45.5 °F 86% 29.87 in 10.0 mi SW 6.9 mph - N/A Rain Light Rain
10:55 AM 49.1 °F - 46.2 °F 90% 29.87 in 10.0 mi SSW 5.8 mph - N/A   Drizzle
11:14 AM 48.9 °F - 46.6 °F 92% 29.86 in 10.0 mi SSW 9.2 mph - N/A Rain Light Rain
11:34 AM 49.3 °F - 46.8 °F 91% 29.86 in 10.0 mi SSW 8.1 mph - N/A   Overcast
11:55 AM 49.3 °F - 46.6 °F 90% 29.86 in 10.0 mi SW 6.9 mph - N/A   Overcast
12:14 PM 49.5 °F - 46.9 °F 91% 29.86 in 10.0 mi SW 6.9 mph - N/A Rain Light Rain
12:34 PM 50.2 °F - 47.5 °F 90% 29.86 in 10.0 mi SW 4.6 mph - N/A   Light Drizzle
12:55 PM 50.7 °F - 47.5 °F 89% 29.86 in 10.0 mi SW 8.1 mph - N/A   Overcast
1:14 PM 51.1 °F - 47.3 °F 87% 29.86 in 10.0 mi SW 5.8 mph - N/A   Overcast
1:35 PM 51.4 °F - 46.8 °F 84% 29.85 in 10.0 mi SW 10.4 mph 16.1 mph N/A   Overcast
1:55 PM 52.0 °F - 46.4 °F 81% 29.84 in 10.0 mi SW 9.2 mph 17.3 mph N/A   Overcast
2:14 PM 53.1 °F - 47.1 °F 80% 29.84 in 10.0 mi SW 10.4 mph - N/A   Mostly Cloudy
2:35 PM 52.2 °F - 46.9 °F 82% 29.83 in 10.0 mi WSW 11.5 mph - N/A   Light Drizzle
2:46 PM 52.0 °F - 47.1 °F 83% 29.83 in 10.0 mi SW 8.1 mph - N/A   Light Drizzle
3:07 PM 53.1 °F - 46.9 °F 80% 29.82 in 10.0 mi SW 10.4 mph - N/A   Overcast
3:34 PM 51.3 °F - 47.5 °F 87% 29.82 in 7.0 mi WSW 5.8 mph - N/A Rain Rain
3:55 PM 50.7 °F - 48.2 °F 91% 29.83 in 10.0 mi WNW 10.4 mph - N/A Rain Light Rain
4:15 PM 50.0 °F - 46.6 °F 88% 29.83 in 10.0 mi West 9.2 mph - N/A   Overcast
4:34 PM 49.6 °F - 45.5 °F 86% 29.83 in 10.0 mi West 8.1 mph - N/A   Overcast
4:55 PM 49.6 °F - 45.3 °F 85% 29.83 in 10.0 mi West 4.6 mph - N/A   Overcast
5:15 PM 50.2 °F - 45.0 °F 82% 29.83 in 10.0 mi SW 5.8 mph - N/A   Overcast
5:34 PM 50.2 °F - 43.7 °F 78% 29.83 in 10.0 mi WSW 13.8 mph 17.3 mph N/A   Overcast
5:55 PM 48.6 °F - 42.8 °F 80% 29.84 in 10.0 mi West 9.2 mph - N/A   Overcast
6:14 PM 48.0 °F - 42.4 °F 81% 29.85 in 10.0 mi West 9.2 mph - N/A   Overcast
6:34 PM 46.9 °F - 40.8 °F 79% 29.85 in 10.0 mi WNW 9.2 mph 17.3 mph N/A   Overcast
6:54 PM 45.9 °F 40.8 °F 39.4 °F 78% 29.86 in 10.0 mi West 10.4 mph 17.3 mph N/A   Mostly Cloudy
7:14 PM 45.5 °F 42.5 °F 38.1 °F 75% 29.86 in 10.0 mi West 5.8 mph - N/A   Mostly Cloudy
7:35 PM 45.7 °F 41.5 °F 37.4 °F 73% 29.87 in 10.0 mi West 8.1 mph 16.1 mph N/A   Overcast
7:54 PM 45.0 °F 39.7 °F 37.2 °F 74% 29.88 in 10.0 mi West 10.4 mph - N/A   Overcast
8:14 PM 44.1 °F 40.1 °F 36.1 °F 74% 29.88 in 10.0 mi West 6.9 mph - N/A   Overcast
8:35 PM 42.8 °F 39.3 °F 36.1 °F 77% 29.88 in 10.0 mi West 5.8 mph - N/A   Scattered Clouds
8:54 PM 41.7 °F 38.8 °F 36.0 °F 80% 29.87 in 10.0 mi West 4.6 mph - N/A   Clear
9:14 PM 41.5 °F 37.1 °F 35.2 °F 78% 29.87 in 10.0 mi WSW 6.9 mph - N/A   Scattered Clouds
9:35 PM 41.0 °F 38.0 °F 34.0 °F 76% 29.87 in 10.0 mi WSW 4.6 mph - N/A   Scattered Clouds
9:54 PM 41.2 °F 37.3 °F 33.6 °F 74% 29.87 in 10.0 mi WSW 5.8 mph - N/A   Scattered Clouds
10:15 PM 41.5 °F 37.8 °F 32.7 °F 71% 29.87 in 10.0 mi West 5.8 mph - N/A   Scattered Clouds
10:35 PM 41.2 °F 36.0 °F 32.7 °F 72% 29.87 in 10.0 mi West 8.1 mph - N/A   Clear
10:54 PM 42.3 °F 38.6 °F 33.3 °F 70% 29.87 in 10.0 mi West 5.8 mph - N/A   Mostly Cloudy
11:15 PM 42.6 °F 37.2 °F 33.3 °F 69% 29.87 in 10.0 mi West 9.2 mph - N/A   Overcast
11:34 PM 42.6 °F 36.3 °F 31.5 °F 65% 29.87 in 10.0 mi West 11.5 mph 21.9 mph N/A   Overcast
11:54 PM 41.5 °F 34.2 °F 28.2 °F 59% 29.87 in 10.0 mi West 13.8 mph 27.6 mph N/A   Overcast